SCP
0 0 0 0 0 0 0 0 0 0 0 0 0 0 0 0 0 0 0 0 0 0 0 0 0 0 0 0 0 0 0 0 0 0 0 0 0 0 0 0 0 0 0 0
0 0 0 0 0 0 0 0 0 0 0 0 0 0 0 0 0 0 0 0 0 0 0 0 0 0 0 0 0 0 0 0 0 0 0 0 0 0 0 0 0 0 0 0
0 0 0 0 0 0 0 0 0 0 0 0 0 0 0 0 0 0 0 0 0 0 0 0 0 0 0 0 0 0 0 0 0 0 0 0 0 0 0 0 0 0 0 0
0 0 0 0 0 0 0 0 0 0 0 0 0 0 0 0 0 0 0 0 0 0 0 0 0 0 0 0 0 0 0 0 0 0 0 0 0 0 0 0 0 0 0 0
0 0 0 0 0 0 0 0 0 0 0 0 0 0 0 0 0 0 0 0 0 0 0 0 0 0 0 0 0 0 0 0 0 0 0 0 0 0 0 0 0 0 0 0
0 0 0 0 0 0 0 0 0 0 0 0 0 0 0 0 0 0 0 0 0 0 0 0 0 0 0 0 0 0 0 0 0 0 0 0 0 0 0 0 0 0 0 0
0 0 0 0 0 0 0 0 0 0 0 0 0 0 0 0 0 0 0 0 0 0 0 0 0 0 0 0 0 0 0 0 0 0 0 0 0 0 0 0 0 0 0 0
0 0 0 0 0 0 0 0 0 0 0 0 0 0 0 0 0 0 0 0 0 0 0 0 0 0 0 0 0 0 0 0 0 0 0 0 0 0 0 0 0 0 0 0
0 0 0 0 0 0 0 0 0 0 0 0 0 0 0 0 0 0 0 0 0 0 0 0 0 0 0 0 0 0 0 0 0 0 0 0 0 0 0 0 0 0 0 0
0 0 0 0 0 0 0 0 0 0 0 0 0 0 0 0 0 0 0 0 0 0 0 0 0 0 0 0 0 0 0 0 0 0 0 0 0 0 0 0 0 0 0 0
0 0 0 0 0 0 0 0 0 0 0 0 0 0 0 0 0 0 0 0 0 0 0 0 0 0 0 0 0 0 0 0 0 0 0 0 0 0 0 0 0 0 0 0
0 0 0 0 0 0 0 0 0 0 0 0 0 0 0 0 0 0 0 0 0 0 0 0 0 0 0 0 0 0 0 0 0 0 0 0 0 0 0 0 0 0 0 0
0 0 0 0 0 0 0 0 0 0 0 0 0 0 0 0 0 0 0 0 0 0 0 0 0 0 0 0 0 0 0 0 0 0 0 0 0 0 0 0 0 0 0 0
0 0 0 0 0 0 0 0 0 0 0 0 0 0 0 0 0 0 0 0 0 0 0 0 0 0 0 0 0 0 0 0 0 0 0 0 0 0 0 0 0 0 0 0
0 0 0 0 0 0 0 0 0 0 0 0 0 0 0 0 0 0 0 0 0 0 0 0 0 0 0 0 0 0 0 0 0 0 0 0 0 0 0 0 0 0 0 0
0 0 0 0 0 0 0 0 0 0 0 0 0 0 0 0 0 0 0 0 0 0 0 0 0 0 0 0 0 0 0 0 0 0 0 0 0 0 0 0 0 0 0 0
0 0 0 0 0 0 0 0 0 0 0 0 0 0 0 0 0 0 0 0 0 0 0 0 0 0 0 0 0 0 0 0 0 0 0 0 0 0 0 0 0 0 0 0
0 0 0 0 0 0 0 0 0 -0 0 0 0 0 0 0 0 0 0 0 0 0 0 0 0 0 0 0 0 0 0 0 0 0 0 0 0 0 0 0 0 0 0 0
0 0 0 0 0 0 0 0 0 -0 -0 -0 0 0 0 0 0 0 0 0 0 0 0 0 0 0 0 0 0 0 0 0 0 0 0 0 0 0 0 0 0 0 0 0
0 0 0 0 0 0 0 0 0 0 0 0 -0 0 0 0 -0 0 0 0 0 0 0 0 0 0 0 0 0 0 0 0 0 0 0 0 0 0 0 0 0 0 0 0
0 0 0 0 0 0 0 0 0 0 0 0 -0 -0 -0 -0 -0 0 0 0 0 0 0 0 0 0 0 0 0 0 0 0 0 0 0 0 0 0 0 0 0 0 0 0
0 0 0 0 0 0 0 0 0 0 0 -0 -0 -0 -0 -0 -0 0 0 0 0 0 0 0 0 0 0 0 0 0 0 0 0 0 0 0 0 0 0 0 0 0 0 0
0 0 0 0 0 0 0 0 0 0 0 -0 -0 -0 -0 -0 -0 0 0 0 0 0 0 0 0 0 0 0 0 0 0 0 0 0 0 0 0 0 0 0 0 0 0 0
0 0 0 0 0 0 0 0 0 0 0 -0 -0 -0 -0 -0 -0 0 0 0 0 0 0 0 0 0 0 0 0 0 0 0 0 0 0 0 0 0 0 0 0 0 0 0
0 0 0 0 0 0 0 0 0 0 0 0 0 0 -0 -0 -0 0 0 0 0 0 0 0 0 0 0 0 0 0 0 0 0 0 0 0 0 0 0 0 0 0 0 0
0 0 0 0 0 0 0 0 0 0 0 0 0 0 -0 -0 -0 0 0 0 0 0 0 0 0 0 0 0 0 0 0 0 0 0 0 0 0 0 0 0 0 0 0 0
Wind_Speed
2 3 3 6 6 4 3 3 4 4 1 2 6 9 10 5 4 6 6 5 5 6 4 1 1 2 2 2 2 3 3 2 2 2 2 1 1 1 0 0 1 1 1 2
3 3 5 2 2 2 2 3 5 3 1 2 5 10 8 6 6 7 7 7 6 4 2 1 1 1 2 2 2 2 3 3 3 2 2 1 1 0 0 0 0 0 1 1
5 3 1 3 2 2 4 5 6 4 3 1 3 8 5 4 3 3 4 5 5 5 5 3 2 2 2 2 3 2 2 2 3 3 2 2 2 1 1 1 1 1 1 1
2 3 1 1 3 4 6 4 4 3 2 3 1 6 7 4 4 5 6 5 5 5 4 4 3 3 3 3 2 2 2 2 2 3 3 3 2 2 2 1 1 1 0 1
3 1 1 3 3 4 4 1 2 2 2 3 2 4 9 1 6 8 7 6 6 5 5 5 4 4 3 2 2 2 2 2 2 2 3 3 2 1 0 0 0 1 1 1
3 1 1 2 1 2 3 2 2 1 0 6 6 6 10 5 7 5 5 5 5 4 4 3 2 2 1 1 1 1 2 1 1 2 2 3 3 2 1 1 1 1 1 1
3 2 1 0 1 1 1 3 2 3 2 7 3 5 11 5 4 4 4 4 3 3 3 2 1 1 1 1 1 1 2 2 1 2 2 2 2 3 3 3 2 2 2 2
1 4 2 1 3 3 3 4 5 5 5 5 2 8 9 3 2 2 2 2 2 2 2 3 3 3 2 2 2 2 2 1 1 1 1 1 1 1 2 2 2 2 2 2
3 4 2 1 1 3 3 3 2 2 1 3 7 8 9 2 2 1 1 1 2 3 2 3 2 2 2 2 2 2 2 1 1 1 0 0 1 1 1 2 2 2 2 2
3 3 3 2 1 1 2 3 2 3 2 5 6 6 6 4 4 3 2 3 3 2 2 2 2 2 2 2 2 2 2 2 1 1 0 0 1 1 1 1 2 2 2 2
2 2 3 1 3 4 2 2 3 2 3 4 5 8 5 5 4 4 5 4 3 3 3 3 2 2 1 1 1 1 1 1 1 0 0 0 1 1 1 1 2 2 2 2
2 2 3 5 2 1 2 4 5 4 5 4 4 9 2 2 3 3 3 3 2 2 2 1 1 1 1 1 1 1 1 1 1 0 0 0 1 1 1 1 2 2 2 2
3 3 2 5 3 2 2 2 3 2 2 4 5 9 2 2 2 2 3 3 2 1 1 1 1 1 1 1 1 1 1 1 0 1 1 1 1 1 1 2 2 2 2 1
3 3 5 7 5 2 5 5 3 4 4 6 10 11 8 5 5 4 3 3 2 2 2 1 1 1 1 1 1 1 1 0 1 1 1 0 1 1 2 2 2 2 1 1
3 3 4 6 5 4 6 8 7 9 9 9 9 11 12 8 6 5 3 3 2 2 2 2 2 2 1 1 1 1 1 0 1 1 1 1 1 1 1 2 2 2 1 1
2 3 2 4 3 5 9 11 11 11 10 11 11 15 11 7 4 4 4 3 3 3 3 3 2 2 2 2 2 1 1 1 1 1 1 1 1 1 2 2 2 2 2 1
4 4 2 5 4 4 10 11 11 9 9 9 13 13 6 4 5 6 5 5 5 4 3 3 3 3 3 3 2 2 2 1 1 1 0 0 0 1 1 2 2 2 2 2
6 5 2 1 2 8 10 3 7 8 9 9 8 7 6 7 6 4 3 4 4 4 4 4 3 2 1 1 1 1 1 1 1 0 1 1 1 1 2 2 2 2 2 2
6 6 3 3 4 11 10 4 5 6 8 8 10 9 6 3 2 4 3 3 5 4 4 3 2 1 1 1 1 2 1 1 1 1 1 1 1 1 1 2 2 2 2 2
2 4 4 4 4 9 9 3 2 2 7 5 7 9 5 1 3 5 1 1 2 1 1 1 1 1 1 1 2 2 1 1 1 2 2 2 1 1 2 2 2 2 2 2
3 3 6 6 7 12 8 2 3 4 8 2 4 5 5 6 6 2 1 0 0 0 0 1 2 1 1 1 2 2 1 1 2 1 1 1 1 1 2 1 1 2 2 2
10 8 8 6 7 13 4 6 8 7 2 1 2 3 4 4 2 1 1 1 0 0 0 1 1 1 1 1 2 2 1 1 1 1 1 1 2 1 1 1 1 2 1 2
10 11 9 12 11 4 6 7 5 1 2 2 2 2 3 3 3 2 2 1 1 0 0 1 1 1 1 1 2 2 1 0 0 1 1 1 1 1 1 1 1 1 1 1
6 3 4 7 9 6 6 5 3 2 3 2 2 2 2 3 3 2 2 1 1 0 0 1 1 1 1 1 0 1 1 0 1 0 1 1 1 1 1 1 1 1 1 2
7 6 5 8 7 5 5 7 6 4 2 2 2 2 3 3 3 3 2 2 1 1 0 1 1 1 1 1 1 1 0 1 0 1 1 1 1 1 1 1 2 2 3 3
7 9 9 10 7 6 5 4 5 4 4 4 3 2 2 3 3 3 2 2 1 1 1 1 1 1 1 1 2 1 0 1 1 1 1 1 1 1 1 2 3 4 4 5
Wind_Direction
52 87 204 213 206 206 179 199 244 252 232 207 240 259 269 260 236 242 246 242 243 247 252 226 184 161 149 155 164 172 172 169 155 161 167 169 193 199 153 179 156 142 143 156
53 256 246 197 182 190 207 240 267 281 265 230 267 271 267 244 228 225 227 232 238 243 255 237 164 145 169 178 181 177 184 179 177 175 175 167 156 200 204 227 20 133 140 150
185 244 206 159 153 199 232 224 237 254 319 307 304 291 264 254 240 240 229 230 232 223 223 215 197 201 202 207 201 194 198 185 177 156 128 99 80 54 32 7 333 323 173 167
237 271 171 166 211 204 250 236 221 225 252 283 219 285 276 245 257 243 239 237 236 230 222 210 198 203 215 225 209 194 184 166 164 156 157 158 171 198 226 222 238 282 212 194
252 268 182 218 227 191 215 163 187 223 220 275 240 250 279 257 248 245 236 233 234 227 218 213 205 204 211 210 193 187 170 155 151 158 166 172 178 204 202 173 199 257 255 216
258 276 229 225 231 183 155 77 27 14 116 259 226 208 272 228 226 238 232 232 236 224 217 217 205 169 161 163 158 153 156 151 148 157 167 177 180 182 178 221 240 256 261 253
314 292 290 127 94 31 119 108 20 342 305 252 214 215 251 252 236 225 233 239 237 217 197 197 194 184 180 181 181 166 163 169 164 156 166 188 188 188 202 214 224 231 240 249
260 283 249 216 187 191 204 169 180 211 234 271 242 234 253 260 278 273 247 226 212 207 197 199 204 201 201 193 182 174 175 181 170 175 194 188 193 199 215 226 228 230 238 240
196 262 334 332 270 154 159 207 195 159 276 273 261 273 291 279 296 295 260 225 226 226 215 209 208 203 200 193 191 185 176 164 162 174 174 197 203 216 228 235 233 239 246 246
158 257 291 307 38 6 166 154 122 157 195 258 278 266 258 269 261 248 237 239 248 236 232 226 213 210 207 197 182 160 163 169 171 159 184 270 288 275 256 247 242 243 248 245
140 185 296 322 213 211 156 168 176 176 193 200 261 266 238 240 237 228 235 239 237 232 229 222 216 209 189 156 143 146 148 125 126 175 207 17 321 314 290 257 255 255 258 247
161 142 256 256 254 308 203 193 170 189 240 231 246 268 287 249 258 230 238 252 242 227 225 209 189 159 140 144 141 165 173 170 197 189 106 23 347 334 308 288 281 272 261 254
136 126 349 329 330 356 288 243 206 181 176 209 226 265 312 348 314 269 254 264 257 228 195 164 155 174 185 186 186 191 197 192 162 104 70 27 358 326 308 299 297 285 263 256
111 161 195 219 240 223 255 258 226 186 213 231 235 261 287 297 292 289 281 269 253 223 199 194 207 216 210 194 192 202 247 212 127 109 102 1 311 301 303 306 303 294 270 255
123 207 234 259 274 256 248 249 229 221 223 228 249 253 265 264 256 257 259 259 241 231 225 221 221 227 218 217 228 231 255 255 150 143 187 253 297 321 328 327 318 315 310 295
136 195 230 277 275 271 270 255 237 239 239 243 261 267 261 262 256 251 243 232 238 248 245 238 232 229 219 219 229 240 246 237 168 177 222 279 356 344 334 327 323 328 330 324
170 156 173 265 303 332 270 236 215 219 219 212 236 251 264 262 250 241 234 226 232 243 244 240 238 234 230 222 214 218 222 194 168 187 239 316 7 325 323 326 329 329 328 330
168 158 172 238 41 243 247 200 199 219 237 228 245 262 259 250 261 255 235 223 235 240 242 244 245 245 240 203 169 169 117 118 124 42 335 342 359 324 333 335 324 326 330 323
184 166 164 172 235 273 285 239 185 209 256 225 234 252 257 271 308 282 245 223 229 231 233 235 229 212 147 128 132 115 98 81 62 336 314 313 305 300 311 305 309 318 326 321
168 164 164 174 210 245 253 214 177 142 271 238 217 236 238 177 248 265 245 216 242 250 234 187 111 111 114 113 118 115 110 85 288 292 303 312 296 275 277 284 306 321 318 314
163 180 195 204 230 258 254 200 132 190 253 259 204 216 202 203 225 263 349 357 202 244 116 103 110 118 136 124 116 118 118 254 282 321 334 323 306 294 290 309 331 331 329 335
181 181 197 182 214 250 205 149 188 224 272 223 213 214 211 223 243 265 293 293 256 98 72 97 105 92 74 112 123 141 227 279 340 359 339 321 319 319 324 332 334 342 341 331
203 196 191 197 218 237 173 198 221 227 234 244 240 248 219 231 243 253 263 274 283 249 88 79 113 89 34 90 141 182 251 312 33 21 314 311 325 333 337 326 317 332 328 306
234 202 202 241 252 243 229 240 256 242 234 254 249 241 213 231 238 249 251 264 271 332 51 67 96 102 323 337 235 211 237 125 144 210 277 295 306 316 323 312 289 278 273 272
208 179 208 245 260 277 249 230 233 237 234 235 254 234 221 216 232 233 241 241 233 241 83 129 171 236 272 309 319 314 309 130 183 245 269 287 285 286 295 289 268 265 259 249
186 184 194 229 219 214 235 219 207 212 230 226 223 251 243 214 228 232 239 239 225 221 206 197 230 252 281 296 294 296 217 173 180 228 263 272 276 279 281 291 302 294 286 291